AQI (13)

Current Conditions for Foresthill, CA. Clear skies, Dry   
Visibility: 10 miles
Space WX Alerts: CONTINUED ALERT:  Electron 2MeV Integral Flux exceeded 1000pfu ( Latest Alert ) - Issue Time: 2018 Sep 24 1316 UTC

  Summary / Temperature 

Current Temperature
66.4°F
19.1°C
(24/hr Ago)
64.1°F
(Apparent temp)
63.1°F
Comfortable
Wind Chill Graphs
66.5°F 

66.4°F/ 19.1°C
 --- Virtual Temp: 68.0°F ---

 Temp Rate:

 24/hr Difference:

 Avg Running Temp:

 Todays High:

 Todays Low:

 Y-days High:

 Y-days Low:

 Todays WChill:

 Y-days WChill:

 Evapotranspiration:

-1.1°F/hr 

+2.3°F

67.5°F

84.2°F 1:51pm

62.1°F 5:17am

82.4°F 2:13pm

61.8°F 6:45am

59.5°F 6:10am

59.8°F 7:12am

0.169 in

115' Above Ground

 Temperature:

 6'AGL VRS 115'AGL:

 Avg Running Temp:

 Humidity:

 Todays High:

 Todays Low:

 Y-days High:

 Y-days Low:

72.0°F 

+5.6°F

72.7°F

24% 

83.0°F 1:29pm

64.0°F 4:11am

80.0°F 1:44pm

64.0°F 5:50am

Temp & Humidity Graphs

  Wind 

Wind Speed

 Calm

Gusting to

 4.0 mph

Wind from NW

304°  NW

Calm

 Avg speed:

 Wind Run:

 Peak Gust:

Calm 

30.0 miles

  22.0 mph 6:05am

  Almanac  

Moon age: 14 days,21 hours,19 minutes,100%

Full moon
100%
Illuminated
14 days in cycle

 Moonrise:

 Moonset:

 Sunrise:

 Sunset:

 Solar Noon:

7:11pm

6:18am

6:54am

6:58pm

12:55pm

2min 32s less daylight tomorrow 

  Solar Radiation 

(Current Solar)
  No Sun Light
(Todays High)
 763 W/m2@12:38pm

Rain

 Rain Today:

 Rain Rate (/hr):

 Rain last hour:

 Rain Yesterday:

 This Month:

 Season Total:

121 Days Since Last Rain Day

0.00 in

0.000 in

0.00 in

0.00 in

0.00 in

0.00 in

Updated Time

Updated: 9/24/18  11:09pm

(Updated  sec ago)

Humidity & Barometer

 Humidity:

 Wetbulb:

 Dew Point:

 Barometer:

30% 

52.9°F 

34.0°F 

29.876 inHg 

 Baro Trend:  Steady 
Northern Calif
Preparedness
Fire 
Level 

    UV Index  

(Current UV)
0.0  None
(Todays High) @ 12:48pm
5.8   Medium

National Weather Service Forecast

Tonight

Tonight: Clear
Clear
Tuesday

Tuesday: Sunny
Sunny
Tuesday
Night
Tuesday Night: Clear
Clear
Wednesday

Wednesday: Sunny
Sunny
Wednesday
Night
Wednesday Night: Mostly Clear
Mostly Clear
Thursday

Thursday: Sunny
Sunny
Lo 62 °F Hi 87 °F Lo 63 °F Hi 89 °F Lo 65 °F Hi 88 °F

Foresthill Probe 2 Stats  
Foresthill Probe 2: is located on Thomas Street
at 3000 feet. The main Foresthill Weather site
is located on Melody ln at the 2860 foot elevation

Calm
64.3°F
17.9°C
Temp Rate:
-1.6°F
Calm
Gusting to
None
(Humidity)
33%
Calm
319°  
Updated: 24/09/18 - 23:04:55
 Todays High: 83.8°F 14:33
 Todays Low: 58.7°F 05:17
 Rain Today: 0.00 in
 Season Total: 0.00 in

Foresthill Wx: Monthly,Yearly, Highs and Lows 

Foresthill  
This Weather Data is coming from the main Foresthill
Weather site located on Melody ln at the 2860 foot
elevation
Not Foresthill Probe 2
Weather Data
Month
  High
Month
  Low
Year
High
Year
Low
Temp 91.8°F
9/5/18
52.8°F
9/16/18
93.9°F
8/10/18
21.9°F
2/23/18
Humidity 64%
9/1/18
13%
9/7/18
100%
1/8/18
12%
7/8/18
Heat Index 88.3°F
9/5/18
53.4°F
9/16/18
93.3°F
7/25/18
27.1°F
2/20/18
Wind Chill 91.8°F
9/5/18
49.6°F
9/14/18
93.9°F
8/10/18
9.2°F
2/23/18
Wind Gust 22 mph
9/12/18
0 mph
9/1/18
43 mph
3/1/18
0 mph
1/1/18
Barometer 30.02 in
9/6/18
29.77 in
9/11/18
30.55 in
1/27/18
29.60 in
6/16/18
ET 0.22 in
9/11/18
0.00 in
9/1/18
0.25 in
6/24/18
0.00 in
1/1/18
Dew Point 55.5°F
9/3/18
23.2°F
9/23/18
66.9°F
7/24/18
7.6°F
2/11/18
Pacific Satellite US Radar Satellite Imagery Sacramento,CA.  (click to enlarge)
NWS Weather Forecast - Summary
Updated: Monday, Sepember 24, 2018 - 2:28pm PDT
Red Flag Warning in effect until Tuesday Afternoon
Current Interstate Highway Conditions for I-80 & US-50

[I 80: IN THE SAN FRANCISCO BAY AREA - SOLANO CO]
no traffic restrictions are reported for this area.

[I 80: IN THE NORTHERN CALIFORNIA AREA & SIERRA NEVADA]
no traffic restrictions are reported for this area.

[US 50: IN THE SACRAMENTO VALLEY & THE LAKE TAHOE BASIN]
the eastbound connector to northbound i 5 /in sacramento/ (sacramento co)   Is closed from 11:00pm each night to 5:00am each morning monday thru friday thru 9/28/18 - due to construction - a detour is available
NWS Weather Forecast: Tonight and Tuesday (Updated: Mon, 24-Sep-2018 2:15pm PDT)
Tonight

Tonight: Clear
Clear

Lo 62 °F
NWS forecast: Clear, with a low around 62. East northeast wind 9 to 14 mph, with gusts as high as 20 mph.
Tuesday

Tuesday: Sunny
Sunny

Hi 87 °F
NWS forecast: Sunny, with a high near 87. Northeast wind 6 to 14 mph, with gusts as high as 20 mph.
YR.NO 10 Day Weather forecast
Last update: 09/24/2018 @ 12:35
Next update: 09/25/2018 @ 01:00
Provided by: 22
      Temperature Precipitation Pressure Wind  
Today
09/24/2018
21:00 00:00 64°F   29.86 inHg Light breeze from east-northeast 4 mph
    (Click to enlarge)
meteogram

    Forecast for next 9 days

      Temperature Precip Pressure Wind  
Tuesday
09/25/2018
00:00 06:00 57°F   29.88 inHg Light breeze from east-northeast 7 mph
  06:00 12:00 64°F   29.88 inHg Gentle breeze from east-northeast 10 mph
  12:00 18:00 84°F   29.91 inHg Light breeze from west-southwest 7 mph
  18:00 00:00 79°F   29.90 inHg Light air from west 2 mph
      Temperature Precip Pressure Wind  
Wednesday
09/26/2018
00:00 06:00 61°F   29.95 inHg Gentle breeze from east-northeast 8 mph
  06:00 12:00 57°F   29.95 inHg Gentle breeze from east-northeast 8 mph
  12:00 18:00 88°F   29.99 inHg Light breeze from southwest 5 mph
  18:00 00:00 81°F   29.92 inHg Light air from west-southwest 2 mph
      Temperature Precip Pressure Wind  
Thursday
09/27/2018
00:00 06:00 57°F   29.91 inHg Light breeze from east-northeast 6 mph
  05:00 11:00 54°F   29.88 inHg Light breeze from east-northeast 7 mph
  11:00 17:00 86°F   29.88 inHg Light air from west-southwest 3 mph
  17:00 23:00 86°F   29.78 inHg Light breeze from west 6 mph
  23:00 05:00 61°F   29.79 inHg Light air from east-northeast 3 mph
      Temperature Precip Pressure Wind  
Friday
09/28/2018
05:00 11:00 55°F   29.74 inHg Light breeze from east-northeast 4 mph
  11:00 17:00 79°F   29.78 inHg Light breeze from south-southwest 6 mph
  17:00 23:00 72°F   29.76 inHg Light breeze from southwest 6 mph
  23:00 05:00 55°F   29.81 inHg Light breeze from south-southwest 4 mph
      Temperature Precip Pressure Wind  
Saturday
09/29/2018
05:00 11:00 50°F   29.86 inHg Light air from south 3 mph
  11:00 17:00 64°F   29.91 inHg Light breeze from south-southwest 6 mph
  17:00 23:00 64°F   29.89 inHg Gentle breeze from south-southwest 9 mph
  23:00 05:00 54°F   29.99 inHg Light breeze from southwest 4 mph
      Temperature Precip Pressure Wind  
Sunday
09/30/2018
05:00 11:00 52°F   30.00 inHg Light air from southeast 1 mph
  11:00 17:00 64°F   30.02 inHg Light breeze from southwest 5 mph
  17:00 23:00 63°F   29.97 inHg Light breeze from southwest 4 mph
  23:00 05:00 52°F   29.99 inHg Light air from east-southeast 1 mph
      Temperature Precip Pressure Wind  
Monday
10/01/2018
05:00 11:00 52°F   29.94 inHg Light air from east 1 mph
  11:00 17:00 55°F 0.36 in 29.91 inHg Light breeze from south-southwest 4 mph
  17:00 23:00 52°F 0.51 in 29.80 inHg Gentle breeze from south 9 mph
  23:00 05:00 48°F 0.38 in 29.78 inHg Light air from east 3 mph
      Temperature Precip Pressure Wind  
Tuesday
10/02/2018
05:00 11:00 50°F 0.13 in 29.78 inHg Light breeze from south 7 mph
  11:00 17:00 54°F   29.86 inHg Light air from south 2 mph
  17:00 23:00 61°F   29.83 inHg Light breeze from west 7 mph
  23:00 05:00 46°F   29.88 inHg Light breeze from east-northeast 6 mph
      Temperature Precip Pressure Wind  
Wednesday
10/03/2018
05:00 11:00 48°F   29.88 inHg Gentle breeze from east-northeast 8 mph
  11:00 17:00 70°F   29.93 inHg Light air from west-southwest 3 mph
  17:00 23:00 70°F   29.90 inHg Light breeze from west-northwest 4 mph
  23:00 05:00 54°F   29.93 inHg Light breeze from east-northeast 7 mph
How Close Are We To this Month's Temperature Record ?
Updated Monday, Sep 24, 2018- 11:05:00 PM

Current Temperature: 66.4°F

September's High: Temperature Record 95.9°F - Set on Wed, Sep 9, 2015 - 1:44:00 PM
We are currently 29.5°F Less than this Month's record High

September's Low: Temperature Record 44.1°F - Set on Sun, Sep 22, 2013 - 7:41:00 AM
We are currently 22.3°F More than this Month's record Low

Weather History For Tuesday, September 25, 2018


On this Day - In Weather History ...
Data courtesy of weatherforyou.com
powered by Cumulus v1.9.3 (1059)
Ambient Weather VWS v14.00
Top Contact Website Map Copyright © 2007 - 2018 Foresthillweather.com Never base important decisions on this or any weather information obtained from the Internet